AirNav   Air Wisconsin pilot careers
 
 352 users online  

7Y4 Bagley Municipal Airport
Bagley, Minnesota, USA

GOING TO BAGLEY?


FAA INFORMATION EFFECTIVE 21 JUNE 2018

Location

FAA Identifier: 7Y4
Lat/Long: 47-31-26.5125N / 095-21-49.3650W
47-31.441875N / 095-21.822750W
47.5240313 / -95.3637125
(estimated)
Elevation: 1500 ft. / 457 m (estimated)
Variation: 05E (1985)
From city: 1 mile E of BAGLEY, MN
Time zone: UTC -5 (UTC -6 during Standard Time)
Zip code: 56621

Airport Operations

Airport use: Open to the public
Activation date: 09/1974
Control tower: no
ARTCC: MINNEAPOLIS CENTER
FSS: PRINCETON FLIGHT SERVICE STATION
NOTAMs facility: PNM (NOTAM-D service available)
Attendance: UNATNDD
Wind indicator: lighted
Segmented circle: no
Lights: MIRL 14/32 PRESET LOW INTST, TO INCR INTST & ACTVT REIL RY 14/32; PAPI RY 14/32; MIRL RY 14/32 - CTAF.
Beacon: white-green (lighted land airport)
Operates sunset to sunrise.

Airport Communications

CTAF: 122.9
WX AWOS-3 at FSE (17 nm W): 118.35 (218-435-6448)
WX AWOS-3 at BJI (17 nm E): 110.0 (218-755-2575)

Nearby radio navigation aids

VOR radial/distance  VOR name  Freq  Var
IDJr272/17.9LAKE BEMIDJI VOR/DME110.0001E
PKDr338/39.4PARK RAPIDS VOR/DME110.6004E

 
NDB name  Hdg/Dist  Freq  Var  ID
FOSSTON100/16.922403EFSE ..-. ... .

Airport Services

Parking: tiedowns
Airframe service: NONE
Powerplant service: NONE
Bottled oxygen: NONE
Bulk oxygen: NONE

Runway Information

Runway 14/32

Dimensions: 3800 x 75 ft. / 1158 x 23 m
RWY 14/32 PAVED AND EXTENDED ON SE END.
Surface: asphalt, in good condition
Runway edge lights: medium intensity
RUNWAY 14  RUNWAY 32
Latitude: 47-31.700783N47-31.182967N
Longitude: 095-22.081517W095-21.563983W
Elevation: 1497.0 ft.1502.6 ft.
Traffic pattern: leftleft
Markings: nonprecision, in good conditionnonprecision, in good condition
Visual slope indicator: 4-light PAPI on left4-light PAPI on left
Runway end identifier lights: yesyes
Obstructions: 19 ft. trees, 529 ft. from runway, 124 ft. right of centerline, 17:1 slope to clear
RY 14: TREES +17, 529 FT FM RY END, 124R, 17:1.
none

Airport Ownership and Management from official FAA records

Ownership: Publicly-owned
Owner: CITY OF BAGLEY
PO BOX 178
BAGLEY, MN 56621
Phone 218-694-2865
Manager: BILL MASTERSON
PO BOX 178, BOX 178
BAGLEY, MN 56621
Phone (218) 556-7812

Airport Operational Statistics

Aircraft based on the field: 4
Single engine airplanes: 4
    
Aircraft operations: avg 46/week *
83% transient general aviation
17% local general aviation
* for 12-month period ending 30 April 2017

Instrument Procedures

There are no published instrument procedures at 7Y4.

Some nearby airports with instrument procedures:

KFSE - Fosston Municipal Airport (17 nm W)
KBJI - Bemidji Regional Airport (17 nm E)
3N8 - Mahnomen County Airport (28 nm SW)
Y49 - Walker Municipal Airport (36 nm SE)
KPKD - Park Rapids Municipal Airport-Konshok Field (39 nm S)
 
Loc | Ops | Rwys | IFR | FBO | Links
Com | Nav | Svcs | Stats | Notes

AirNav Hotels Sweepstakes
 
Area around 7Y4 (Bagley Municipal Airport)
 
Road maps at: MapQuest Bing Google
 
Aerial photo
No photo
 
Sectional chart

 
Airport distance calculator
Flying to Bagley Municipal Airport? Find the distance to fly.

From to 7Y4

Sunrise and sunset
Times for 22-Jun-2018
 Local
(UTC-5)
 Zulu
(UTC)
Morning civil twilight04:4509:45
Sunrise05:2510:25
Sunset21:2202:22
Evening civil twilight22:0203:02

Current date and time
Zulu (UTC)  22-Jun-2018 08:32:00
Local (UTC-5)  22-Jun-2018 03:32:00
 
METAR
KFSE 
17nm W 
220815Z AUTO 17004KT 10SM CLR 18/16 A2992 RMK AO2
KBJI 
18nm E 
220815Z AUTO 00000KT 10SM CLR 17/15 A2993 RMK AO2 T01690151
K3N8 
28nm SW 
220815Z AUTO 16003KT 10SM CLR 19/15 A2992 RMK AO2 T01880152
TAF
KBJI 
18nm E 
220520Z 2206/2306 VRB04KT P6SM FEW050 SCT250 FM221500 18004KT P6SM FEW080 SCT250 FM221900 17006KT P6SM SCT050 BKN200
NOTAMs
Click for the latest NOTAMs
NOTAMs are issued by the DoD/FAA and will open in a separate window not controlled by AirNav.

 

 
 

Would you like to see your business listed on this page?

 If your business provides an interesting product or service to pilots, flight crews, aircraft, or users of the Bagley Municipal Airport, you should consider listing it here.  To start the listing process, click on the button below
 
Add a business
 

Other Pages about Bagley Municipal Airport

PDF page(s) from the Minnesota Airport Directory
 
Update a link
 
Copyright © AirNav, LLC. All rights reserved. Privacy Policy  Contact